Volver al catálogo

COSMOS 1987

GLONASS

ActivoNavegaciónMEO
NORAD 19749·PAYLOAD·🇷🇺 Russia

Lanzado Jan 10, 1989 desde Baikonur Cosmodrome

Loading…

Próximos Pases (próximas 24 horas)

TLE

ActualizadoSource: Space-Track

Época: Sep 13, 2026, 22:04 UTC

1 19749U 89001A   26256.91989608 -.00000011  00000-0  00000+0 0  9991
2 19749  64.9918  69.2615 0004810 232.8462 306.6514  2.13073157293185

Sigue COSMOS 1987 en tiempo real con AllMySat

Download on the App Store